AJB4014 SABE-SAAR

Flight info

Callsign AJB4014
Flight time 0h 49m
Altitude 16000
Route ATOVO4B ATOVO W5 ESKON
Aircraft AT76/M-SDFGIRY/S

Departure

Time 2026-05-04 02:56
Airport Aeroparque Jorge Newbery (SABE)

Arrival

Time 2026-05-04 03:45
Airport Rosario Islas Malvinas International Airport (SAAR)
Time Latitude Longitude Altitude Speed Heading
2026-05-04 02:16 -34.55905 -58.41251 23 ft 0 kts 271°
2026-05-04 02:45 -34.55905 -58.41244 24 ft 1 kts 273°
2026-05-04 02:46 -34.55905 -58.41236 24 ft 1 kts 272°
2026-05-04 02:46 -34.55906 -58.41229 23 ft 1 kts 244°
2026-05-04 02:46 -34.55904 -58.41225 23 ft 1 kts 211°
2026-05-04 02:46 -34.55899 -58.41222 23 ft 1 kts 194°
2026-05-04 02:47 -34.55892 -58.41221 24 ft 1 kts 189°
2026-05-04 02:47 -34.55885 -58.41219 28 ft 1 kts 185°
2026-05-04 02:47 -34.55880 -58.41219 27 ft 1 kts 204°
2026-05-04 02:47 -34.55876 -58.41217 23 ft 1 kts 228°
2026-05-04 02:48 -34.55872 -58.41211 24 ft 1 kts 238°
2026-05-04 02:48 -34.55869 -58.41203 24 ft 1 kts 239°
2026-05-04 02:48 -34.55865 -58.41196 26 ft 1 kts 239°
2026-05-04 02:48 -34.55863 -58.41193 27 ft 1 kts 288°
2026-05-04 02:49 -34.55863 -58.41192 28 ft 0 kts 293°
2026-05-04 02:50 -34.55862 -58.41208 25 ft 3 kts 273°
2026-05-04 02:50 -34.55858 -58.41243 23 ft 5 kts 281°
2026-05-04 02:50 -34.55873 -58.41283 26 ft 7 kts 218°
2026-05-04 02:51 -34.55924 -58.41292 24 ft 9 kts 154°
2026-05-04 02:51 -34.55968 -58.41226 25 ft 11 kts 127°
2026-05-04 02:51 -34.56022 -58.41138 26 ft 7 kts 126°
2026-05-04 02:51 -34.56049 -58.41094 25 ft 9 kts 127°
2026-05-04 02:52 -34.56097 -58.41015 26 ft 13 kts 127°
2026-05-04 02:52 -34.56153 -58.40918 23 ft 14 kts 116°
2026-05-04 02:52 -34.56159 -58.40838 23 ft 10 kts 112°
2026-05-04 02:52 -34.56205 -58.40760 24 ft 13 kts 124°
2026-05-04 02:53 -34.56261 -58.40657 24 ft 15 kts 124°
2026-05-04 02:53 -34.56318 -58.40554 25 ft 16 kts 125°
2026-05-04 02:53 -34.56390 -58.40468 23 ft 12 kts 140°
2026-05-04 02:53 -34.56463 -58.40391 25 ft 16 kts 139°
2026-05-04 02:54 -34.56552 -58.40382 23 ft 4 kts 220°
2026-05-04 02:54 -34.56563 -58.40427 22 ft 6 kts 296°
2026-05-04 02:54 -34.56545 -58.40459 22 ft 4 kts 305°
2026-05-04 02:54 -34.56532 -58.40481 24 ft 3 kts 303°
2026-05-04 02:55 -34.56173 -58.41123 28 ft 98 kts 304°
2026-05-04 02:55 -34.55722 -58.41933 147 ft 127 kts 306°
2026-05-04 02:55 -34.55224 -58.42868 483 ft 136 kts 307°
2026-05-04 02:56 -34.54636 -58.43923 624 ft 162 kts 307°
2026-05-04 02:56 -34.54035 -58.45088 1039 ft 159 kts 308°
2026-05-04 02:56 -34.53200 -58.45822 1481 ft 151 kts 354°
2026-05-04 02:56 -34.52213 -58.45433 2005 ft 148 kts 19°
2026-05-04 02:57 -34.51253 -58.45143 2468 ft 140 kts
2026-05-04 02:57 -34.50243 -58.45210 2666 ft 153 kts 347°
2026-05-04 02:57 -34.49198 -58.45467 3008 ft 157 kts 345°
2026-05-04 02:57 -34.48132 -58.45776 3388 ft 158 kts 343°
2026-05-04 02:58 -34.47055 -58.46107 3726 ft 161 kts 343°
2026-05-04 02:58 -34.45965 -58.46445 4072 ft 163 kts 342°
2026-05-04 02:58 -34.44849 -58.46777 4420 ft 166 kts 343°
2026-05-04 02:58 -34.43715 -58.47113 4782 ft 169 kts 343°
2026-05-04 02:59 -34.42578 -58.47480 5128 ft 168 kts 332°
2026-05-04 02:59 -34.41801 -58.48487 5413 ft 166 kts 302°
2026-05-04 02:59 -34.41186 -58.49682 5743 ft 168 kts 302°
2026-05-04 02:59 -34.40573 -58.50895 6106 ft 169 kts 301°
2026-05-04 03:00 -34.39967 -58.52115 6468 ft 169 kts 300°
2026-05-04 03:00 -34.39361 -58.53342 6790 ft 171 kts 300°
2026-05-04 03:00 -34.38750 -58.54580 7109 ft 172 kts 300°
2026-05-04 03:00 -34.38133 -58.55827 7413 ft 173 kts 300°
2026-05-04 03:01 -34.37512 -58.57078 7734 ft 174 kts 300°
2026-05-04 03:01 -34.36883 -58.58337 8041 ft 175 kts 300°
2026-05-04 03:01 -34.36249 -58.59601 8342 ft 176 kts 300°
2026-05-04 03:01 -34.35609 -58.60871 8641 ft 177 kts 300°
2026-05-04 03:02 -34.34963 -58.62147 8935 ft 178 kts 300°
2026-05-04 03:02 -34.34312 -58.63426 9230 ft 179 kts 300°
2026-05-04 03:02 -34.33558 -58.64625 9483 ft 182 kts 316°
2026-05-04 03:02 -34.32650 -58.65676 9719 ft 180 kts 303°
2026-05-04 03:03 -34.31949 -58.66944 9945 ft 182 kts 301°
2026-05-04 03:03 -34.31256 -58.68236 10185 ft 184 kts 301°
2026-05-04 03:03 -34.30565 -58.69537 10427 ft 184 kts 300°
2026-05-04 03:03 -34.29872 -58.70847 10666 ft 185 kts 300°
2026-05-04 03:04 -34.29179 -58.72162 10916 ft 186 kts 300°
2026-05-04 03:04 -34.28481 -58.73486 11160 ft 187 kts 300°
2026-05-04 03:04 -34.27775 -58.74818 11400 ft 188 kts 300°
2026-05-04 03:04 -34.27064 -58.76152 11628 ft 189 kts 300°
2026-05-04 03:05 -34.26347 -58.77495 11866 ft 191 kts 300°
2026-05-04 03:05 -34.25623 -58.78843 12104 ft 191 kts 300°
2026-05-04 03:05 -34.24895 -58.80194 12338 ft 192 kts 300°
2026-05-04 03:05 -34.24252 -58.81385 12529 ft 193 kts 300°
2026-05-04 03:06 -34.23515 -58.82748 12759 ft 194 kts 300°
2026-05-04 03:06 -34.22772 -58.84119 12986 ft 195 kts 300°
2026-05-04 03:06 -34.22024 -58.85493 13218 ft 196 kts 300°
2026-05-04 03:06 -34.21270 -58.86874 13439 ft 197 kts 300°
2026-05-04 03:07 -34.20511 -58.88260 13657 ft 198 kts 300°
2026-05-04 03:07 -34.19750 -58.89652 13864 ft 199 kts 300°
2026-05-04 03:07 -34.18992 -58.91055 14059 ft 199 kts 299°
2026-05-04 03:07 -34.18236 -58.92459 14256 ft 199 kts 299°
2026-05-04 03:08 -34.17485 -58.93858 14441 ft 199 kts 299°
2026-05-04 03:08 -34.16731 -58.95261 14626 ft 199 kts 299°
2026-05-04 03:08 -34.15975 -58.96666 14828 ft 199 kts 299°
2026-05-04 03:08 -34.15223 -58.98065 15039 ft 198 kts 298°
2026-05-04 03:09 -34.14470 -58.99462 15240 ft 198 kts 298°
2026-05-04 03:09 -34.13718 -59.00859 15430 ft 199 kts 298°
2026-05-04 03:09 -34.12966 -59.02257 15618 ft 198 kts 298°
2026-05-04 03:09 -34.12215 -59.03651 15810 ft 198 kts 298°
2026-05-04 03:10 -34.11457 -59.05058 15937 ft 201 kts 298°
2026-05-04 03:10 -34.10686 -59.06493 15996 ft 207 kts 298°
2026-05-04 03:10 -34.09891 -59.07967 16023 ft 213 kts 298°
2026-05-04 03:10 -34.09074 -59.09483 16036 ft 218 kts 298°
2026-05-04 03:11 -34.08241 -59.11029 16045 ft 222 kts 298°
2026-05-04 03:11 -34.07404 -59.12587 16047 ft 226 kts 298°
2026-05-04 03:11 -34.06535 -59.14212 16046 ft 229 kts 298°
2026-05-04 03:11 -34.05658 -59.15827 16046 ft 232 kts 301°
2026-05-04 03:12 -34.04642 -59.17361 16045 ft 236 kts 306°
2026-05-04 03:12 -34.03554 -59.18853 16045 ft 238 kts 307°
2026-05-04 03:12 -34.02459 -59.20358 16044 ft 239 kts 306°
2026-05-04 03:12 -34.01366 -59.21874 16043 ft 240 kts 306°
2026-05-04 03:13 -34.00286 -59.23410 16042 ft 240 kts 306°
2026-05-04 03:13 -33.99211 -59.24954 16044 ft 241 kts 305°
2026-05-04 03:13 -33.98147 -59.26484 16044 ft 241 kts 305°
2026-05-04 03:13 -33.97070 -59.28035 16045 ft 242 kts 305°
2026-05-04 03:14 -33.95990 -59.29587 16047 ft 242 kts 305°
2026-05-04 03:14 -33.94908 -59.31144 16043 ft 242 kts 305°
2026-05-04 03:14 -33.93829 -59.32699 16045 ft 242 kts 305°
2026-05-04 03:14 -33.92745 -59.34256 16043 ft 242 kts 305°
2026-05-04 03:15 -33.91663 -59.35807 16043 ft 242 kts 305°
2026-05-04 03:15 -33.90583 -59.37361 16043 ft 242 kts 305°
2026-05-04 03:15 -33.89504 -59.38910 16045 ft 241 kts 306°
2026-05-04 03:15 -33.88427 -59.40456 16043 ft 241 kts 306°
2026-05-04 03:16 -33.87348 -59.42002 16043 ft 241 kts 306°
2026-05-04 03:16 -33.86273 -59.43542 16045 ft 241 kts 305°
2026-05-04 03:16 -33.85195 -59.45086 16044 ft 241 kts 306°
2026-05-04 03:16 -33.84119 -59.46628 16045 ft 241 kts 306°
2026-05-04 03:17 -33.83042 -59.48170 16045 ft 240 kts 306°
2026-05-04 03:17 -33.81968 -59.49707 16044 ft 240 kts 306°
2026-05-04 03:17 -33.80891 -59.51248 16043 ft 240 kts 305°
2026-05-04 03:17 -33.79817 -59.52786 16046 ft 240 kts 306°
2026-05-04 03:18 -33.78742 -59.54325 16043 ft 240 kts 306°
2026-05-04 03:18 -33.77668 -59.55863 16043 ft 240 kts 306°
2026-05-04 03:18 -33.76956 -59.56882 16045 ft 240 kts 306°
2026-05-04 03:18 -33.75518 -59.58937 16042 ft 240 kts 306°
2026-05-04 03:19 -33.74441 -59.60476 16044 ft 240 kts 306°
2026-05-04 03:19 -33.73729 -59.61493 16044 ft 240 kts 306°
2026-05-04 03:19 -33.72653 -59.63028 16045 ft 240 kts 306°
2026-05-04 03:19 -33.71577 -59.64562 16044 ft 240 kts 306°
2026-05-04 03:20 -33.70500 -59.66097 16043 ft 240 kts 306°
2026-05-04 03:20 -33.69433 -59.67639 16044 ft 240 kts 305°
2026-05-04 03:20 -33.68373 -59.69187 16043 ft 240 kts 305°
2026-05-04 03:20 -33.67305 -59.70724 16043 ft 240 kts 306°
2026-05-04 03:21 -33.66230 -59.72254 16043 ft 240 kts 306°
2026-05-04 03:21 -33.64803 -59.74278 16042 ft 240 kts 306°
2026-05-04 03:21 -33.64075 -59.75310 16043 ft 240 kts 306°
2026-05-04 03:21 -33.63000 -59.76836 16042 ft 240 kts 306°
2026-05-04 03:22 -33.61920 -59.78366 16042 ft 240 kts 306°
2026-05-04 03:22 -33.60845 -59.79889 16041 ft 239 kts 306°
2026-05-04 03:22 -33.59769 -59.81414 16042 ft 239 kts 306°
2026-05-04 03:22 -33.58690 -59.82939 16042 ft 240 kts 306°
2026-05-04 03:23 -33.57614 -59.84462 16042 ft 240 kts 306°
2026-05-04 03:23 -33.56534 -59.85988 16043 ft 240 kts 306°
2026-05-04 03:23 -33.55457 -59.87512 16043 ft 240 kts 306°
2026-05-04 03:23 -33.54378 -59.89036 16040 ft 240 kts 306°
2026-05-04 03:24 -33.53299 -59.90560 16041 ft 240 kts 306°
2026-05-04 03:24 -33.52234 -59.92064 16039 ft 240 kts 306°
2026-05-04 03:24 -33.51156 -59.93585 16038 ft 240 kts 306°
2026-05-04 03:24 -33.50079 -59.95105 16038 ft 239 kts 306°
2026-05-04 03:25 -33.48999 -59.96626 16040 ft 240 kts 306°
2026-05-04 03:25 -33.47917 -59.98149 16041 ft 240 kts 306°
2026-05-04 03:25 -33.46838 -59.99671 16040 ft 240 kts 306°
2026-05-04 03:25 -33.45757 -60.01193 16039 ft 240 kts 306°
2026-05-04 03:26 -33.44677 -60.02714 16042 ft 240 kts 306°
2026-05-04 03:26 -33.43597 -60.04235 16040 ft 240 kts 306°
2026-05-04 03:26 -33.42516 -60.05754 16043 ft 240 kts 306°
2026-05-04 03:26 -33.41433 -60.07275 16038 ft 240 kts 306°
2026-05-04 03:27 -33.40353 -60.08793 16039 ft 240 kts 306°
2026-05-04 03:27 -33.39271 -60.10313 16039 ft 240 kts 306°
2026-05-04 03:27 -33.38189 -60.11831 16040 ft 240 kts 306°
2026-05-04 03:27 -33.37109 -60.13347 16038 ft 240 kts 306°
2026-05-04 03:28 -33.36026 -60.14868 16041 ft 240 kts 306°
2026-05-04 03:28 -33.34946 -60.16383 16040 ft 240 kts 306°
2026-05-04 03:28 -33.33865 -60.17899 16040 ft 240 kts 306°
2026-05-04 03:28 -33.32781 -60.19417 16041 ft 240 kts 306°
2026-05-04 03:29 -33.31701 -60.20931 16040 ft 240 kts 306°
2026-05-04 03:29 -33.30616 -60.22447 16039 ft 240 kts 306°
2026-05-04 03:29 -33.29534 -60.23962 16040 ft 240 kts 306°
2026-05-04 03:29 -33.28451 -60.25477 16040 ft 240 kts 306°
2026-05-04 03:30 -33.27369 -60.26989 16036 ft 240 kts 306°
2026-05-04 03:30 -33.26283 -60.28507 16037 ft 240 kts 306°
2026-05-04 03:30 -33.25198 -60.30023 16036 ft 240 kts 306°
2026-05-04 03:30 -33.24113 -60.31543 16037 ft 241 kts 306°
2026-05-04 03:31 -33.23047 -60.33076 16036 ft 238 kts 301°
2026-05-04 03:31 -33.22317 -60.34826 16039 ft 233 kts 288°
2026-05-04 03:31 -33.21762 -60.36652 15880 ft 240 kts 287°
2026-05-04 03:31 -33.21207 -60.38539 15496 ft 248 kts 287°
2026-05-04 03:32 -33.20594 -60.40494 15114 ft 254 kts 289°
2026-05-04 03:32 -33.19944 -60.42417 14732 ft 238 kts 290°
2026-05-04 03:32 -33.19329 -60.44188 14200 ft 225 kts 290°
2026-05-04 03:32 -33.18747 -60.45887 13638 ft 217 kts 290°
2026-05-04 03:33 -33.18197 -60.47518 13056 ft 211 kts 290°
2026-05-04 03:33 -33.17668 -60.49129 12477 ft 206 kts 290°
2026-05-04 03:33 -33.17141 -60.50705 11909 ft 203 kts 290°
2026-05-04 03:33 -33.16617 -60.52261 11352 ft 201 kts 291°
2026-05-04 03:34 -33.16099 -60.53797 10806 ft 199 kts 291°
2026-05-04 03:34 -33.15586 -60.55323 10270 ft 197 kts 292°
2026-05-04 03:34 -33.15071 -60.56840 9713 ft 196 kts 292°
2026-05-04 03:34 -33.14564 -60.58335 9122 ft 193 kts 292°
2026-05-04 03:35 -33.14056 -60.59810 8538 ft 190 kts 294°
2026-05-04 03:35 -33.13560 -60.61264 7969 ft 188 kts 293°
2026-05-04 03:35 -33.13076 -60.62712 7405 ft 186 kts 294°
2026-05-04 03:35 -33.12597 -60.64136 6853 ft 184 kts 294°
2026-05-04 03:36 -33.12123 -60.65548 6301 ft 182 kts 295°
2026-05-04 03:36 -33.11654 -60.66942 5713 ft 180 kts 295°
2026-05-04 03:36 -33.11192 -60.68322 5143 ft 178 kts 296°
2026-05-04 03:36 -33.10725 -60.69690 4569 ft 178 kts 296°
2026-05-04 03:37 -33.10266 -60.71041 4002 ft 178 kts 297°
2026-05-04 03:37 -33.09813 -60.72402 3484 ft 174 kts 297°
2026-05-04 03:37 -33.09368 -60.73715 3226 ft 166 kts 298°
2026-05-04 03:37 -33.08941 -60.74952 3035 ft 157 kts 298°
2026-05-04 03:38 -33.08532 -60.76137 2827 ft 153 kts 298°
2026-05-04 03:38 -33.08129 -60.77312 2635 ft 153 kts 299°
2026-05-04 03:38 -33.07728 -60.78478 2444 ft 150 kts 299°
2026-05-04 03:38 -33.07332 -60.79637 2206 ft 150 kts 299°
2026-05-04 03:39 -33.06950 -60.80771 2095 ft 144 kts 299°
2026-05-04 03:39 -33.06497 -60.81693 2045 ft 120 kts 330°
2026-05-04 03:39 -33.05716 -60.81797 2022 ft 114 kts
2026-05-04 03:39 -33.04919 -60.81730 2006 ft 114 kts
2026-05-04 03:40 -33.04149 -60.81611 2000 ft 110 kts
2026-05-04 03:40 -33.03406 -60.81460 1995 ft 107 kts
2026-05-04 03:40 -33.02685 -60.81297 2003 ft 101 kts
2026-05-04 03:40 -33.02033 -60.81138 1987 ft 93 kts
2026-05-04 03:41 -33.01375 -60.80985 1927 ft 102 kts
2026-05-04 03:41 -33.00658 -60.80824 1797 ft 106 kts
2026-05-04 03:41 -32.99937 -60.80663 1661 ft 105 kts
2026-05-04 03:41 -32.99213 -60.80503 1526 ft 106 kts
2026-05-04 03:42 -32.98489 -60.80333 1424 ft 106 kts 10°
2026-05-04 03:42 -32.97766 -60.80133 1361 ft 107 kts 11°
2026-05-04 03:42 -32.97033 -60.79956 1270 ft 108 kts
2026-05-04 03:42 -32.96287 -60.79789 1167 ft 109 kts
2026-05-04 03:43 -32.95543 -60.79630 1027 ft 109 kts
2026-05-04 03:43 -32.94790 -60.79461 848 ft 111 kts
2026-05-04 03:43 -32.94019 -60.79288 668 ft 115 kts 11°
2026-05-04 03:43 -32.93231 -60.79112 509 ft 116 kts 11°
2026-05-04 03:44 -32.92458 -60.78948 297 ft 109 kts 12°
2026-05-04 03:44 -32.91715 -60.78780 123 ft 109 kts 12°
2026-05-04 03:44 -32.91034 -60.78621 98 ft 88 kts 11°
2026-05-04 03:44 -32.90572 -60.78517 93 ft 55 kts 10°
2026-05-04 03:45 -32.90342 -60.78468 91 ft 26 kts
2026-05-04 03:45 -32.90202 -60.78426 93 ft 15 kts 19°
2026-05-04 03:45 -32.90131 -60.78411 92 ft 5 kts 316°
2026-05-04 03:45 -32.90135 -60.78422 95 ft 4 kts 218°
2026-05-04 03:46 -32.90196 -60.78431 92 ft 11 kts 186°
2026-05-04 03:46 -32.90277 -60.78451 90 ft 13 kts 191°
2026-05-04 03:46 -32.90365 -60.78470 91 ft 13 kts 189°
2026-05-04 03:46 -32.90454 -60.78488 92 ft 13 kts 189°
2026-05-04 03:47 -32.90539 -60.78507 93 ft 12 kts 192°
2026-05-04 03:47 -32.90625 -60.78527 93 ft 13 kts 191°
2026-05-04 03:47 -32.90711 -60.78548 93 ft 13 kts 191°
2026-05-04 03:47 -32.90795 -60.78567 94 ft 12 kts 191°
2026-05-04 03:48 -32.90879 -60.78565 95 ft 12 kts 172°
2026-05-04 03:48 -32.90959 -60.78540 95 ft 12 kts 161°
2026-05-04 03:48 -32.91041 -60.78504 93 ft 13 kts 159°
2026-05-04 03:48 -32.91113 -60.78452 94 ft 12 kts 146°
2026-05-04 03:49 -32.91179 -60.78392 92 ft 12 kts 139°
2026-05-04 03:49 -32.91240 -60.78332 92 ft 11 kts 141°
2026-05-04 03:49 -32.91301 -60.78274 92 ft 11 kts 141°
2026-05-04 03:49 -32.91358 -60.78219 92 ft 8 kts 142°
2026-05-04 03:50 -32.91395 -60.78184 92 ft 7 kts 141°
2026-05-04 03:50 -32.91434 -60.78165 92 ft 6 kts 180°
2026-05-04 03:50 -32.91467 -60.78174 93 ft 2 kts 199°
2026-05-04 03:50 -32.91495 -60.78186 92 ft 6 kts 201°
2026-05-04 03:51 -32.91543 -60.78209 93 ft 7 kts 201°
2026-05-04 03:51 -32.91583 -60.78224 92 ft 4 kts 174°
2026-05-04 03:51 -32.91598 -60.78194 92 ft 5 kts 108°
2026-05-04 03:51 -32.91612 -60.78152 92 ft 6 kts 110°
2026-05-04 03:52 -32.91622 -60.78117 93 ft 1 kts 109°
2026-05-04 03:52 -32.91624 -60.78113 92 ft 0 kts 109°